Location: Red Rock Farm
(35.2100°N, 97.2200°W)
Time: 08:57:25
(UTC-06:00)

Daily predictions for brighter satellites

Satellite Brightness Start Highest point End
(mag) Time Altitude Azimuth Time Altitude Azimuth Time Altitude Azimuth
CORIOLIS 4.1 18:04:23 10° SSE 18:09:43 81° ENE 18:15:06 10° N
USA 215 4.1 18:05:09 10° E 18:10:39 30° NNE 18:16:10 10° NNW
Cosmos 2333 Rocket 2.2 18:06:23 10° SSW 18:11:58 70° ESE 18:17:36 10° NNE
Cosmos 371 Rocket 3.3 18:14:03 10° SSW 18:18:51 89° WNW 18:23:41 10° NNE
OAO 3 Rocket 4.2 18:14:33 10° W 18:19:17 47° SSW 18:23:55 10° SE
YAOGAN 1 2.8 18:15:20 10° S 18:19:39 75° W 18:23:59 10° NNW
CZ-4 R/B 4.4 18:16:35 10° SSE 18:20:43 85° ENE 18:24:52 10° N
Cosmos 2219 Rocket 2.5 18:15:40 10° SSW 18:21:18 74° WNW 18:26:57 10° NNE
COSMO-SKYMED 1 2.6 18:17:53 10° NNE 18:22:11 60° E 18:26:27 10° S
Cosmos 2058 3.5 18:18:38 10° SSE 18:22:23 35° E 18:26:08 10° NNE
Atlas Centaur 2 3.9 18:19:49 10° W 18:24:19 26° SSW 18:28:04 10° SSE
SPOT 3 Rocket 4.0 18:21:29 10° S 18:26:35 67° WSW 18:31:43 10° NNW
SMAP 4.1 18:23:53 10° S 18:28:23 51° W 18:32:56 10° NNW
FREGAT/IRIS 4.4 18:27:39 10° ESE 18:32:19 - NNE 18:29:06 14° ENE
Thor Agena Rocket 4.3 18:24:11 10° N 18:29:18 55° WNW 18:34:19 10° SSW
Cosmos 1125 Rocket 3.6 18:24:49 10° N 18:29:54 51° ENE 18:34:56 10° SE
Cosmos 2278 Rocket 2.5 18:26:30 10° N 18:31:57 45° ENE 18:37:21 10° SE
Cosmos 2228 Rocket 3.8 18:27:47 10° NNW 18:32:07 58° W 18:36:29 10° S
Cosmos 1626 3.6 18:29:51 10° SE 18:32:24 18° E 18:34:02 14° ENE
Cosmos 1340 Rocket 3.2 18:32:18 10° SSE 18:35:59 39° E 18:39:40 10° NNE
Cosmos 2279 Rocket 4.2 18:32:12 10° N 18:38:13 49° E 18:44:13 10° SSE
NOAA 12 4.5 18:34:03 10° SE 18:38:52 39° ENE 18:43:43 10° N
Cosmos 44 Rocket 4.4 18:34:12 10° SW 18:39:08 46° WNW 18:44:01 10° NNE
SL-14 R/B 3.2 18:38:15 10° S 18:42:09 88° W 18:46:07 10° N
Cosmos 1844 3.9 18:37:53 10° NNW 18:43:41 80° WSW 18:49:28 10° SSE
BREEZE-M DEB (TANK) 3.5 18:42:29 10° W 18:44:57 21° NW 18:46:31 12° NNE
Cosmos 1356 Rocket 4.3 18:42:21 10° SSE 18:45:42 26° E 18:47:32 18° NE
Cosmos 1484 Rocket 3.2 18:42:44 10° S 18:46:36 65° W 18:50:33 10° NNW
CENTAUR R/B 4.3 18:45:37 10° W 18:50:37 25° NW 18:56:06 10° N
Cosmos 1726 2.3 18:48:35 10° N 18:52:21 75° W 18:56:06 10° S
Cosmos 2237 Rocket 2.6 18:47:57 10° SSW 18:53:32 66° WNW 18:59:09 10° NNE
Cosmos 2151 3.4 18:49:35 10° SSW 18:53:44 62° W 18:57:55 10° N
Nadezhda 4 Rocket 4.4 18:49:21 10° SSE 18:55:07 41° E 19:00:56 10° NNE
Cosmos 1300 3.0 18:52:40 10° NNW 18:56:30 68° W 19:00:17 10° S
Cosmos 2180 Rocket 4.5 18:52:27 10° N 18:58:34 60° E 19:04:41 10° SSE
SL-16 R/B 2.3 18:53:27 10° S 18:58:56 55° ESE 19:03:37 14° NNE
Cosmos 304 Rocket 3.7 18:57:34 10° S 19:02:21 72° ESE 19:06:45 12° NNE
Aureole 2 Rocket 2.9 18:59:57 10° SSW 19:03:28 66° WNW 19:07:20 10° NNE
Iridium 4 Rocket 4.2 18:59:53 10° SE 19:03:08 25° E 19:03:08 25° E
Centaur AC-119 4.1 19:03:21 10° SSW 19:05:09 16° SSE 19:06:05 15° SE
Hubble Space Telescope 3.4 19:03:50 10° SW 19:06:01 14° SSW 19:08:11 10° SSE
Cosmos 1805 Rocket 3.5 19:05:36 10° S 19:10:02 82° E 19:14:31 10° N
Timation 1 Rocket 4.5 19:04:43 10° NNW 19:10:34 50° ENE 19:16:22 10° SE
Abrixas 3.7 19:07:56 10° W 19:10:36 31° NNW 19:11:15 28° N
Cosmos 1151 Rocket 4.3 19:07:23 10° NNW 19:11:26 42° W 19:15:29 10° SSW
Cosmos 2297 3.9 19:06:45 10° N 19:12:14 45° ENE 19:17:42 10° SE
Cosmos 1092 Rocket 4.3 19:07:36 10° SSE 19:13:26 41° E 19:19:19 10° NNE
Lacrosse 5 rocket 1.7 19:12:38 10° NNW 19:16:06 40° NE 19:16:06 40° NE
Sich 1 3.0 19:27:19 10° S 19:31:46 89° WNW 19:34:13 26° N
Cosmos 773 Rocket 3.9 19:27:36 10° S 19:32:39 59° ESE 19:33:30 52° ENE
Cosmos 1633 Rocket 2.9 19:31:58 10° S 19:36:23 90° E 19:37:47 43° N
SJ-6B 3.8 19:38:07 10° S 19:42:01 48° W 19:46:00 10° NNW
OTV 4 2.5 19:39:19 10° W 19:41:02 28° WSW 19:41:02 28° WSW
FengYun 1-2 T 4.1 19:36:46 10° SSE 19:42:20 81° ENE 19:47:53 10° N
FENGYUN 3A 3.5 19:39:57 10° SSE 19:45:18 81° ENE 19:50:41 10° N
ALOS 2.1 19:40:47 10° SSE 19:45:27 87° ENE 19:50:08 10° N
BREEZE-M DEB (TANK) 4.1 19:45:05 10° SSW 19:49:07 44° ESE 19:49:16 44° ESE
Resurs 01 Rocket 3.0 19:55:07 29° NNW 19:55:07 29° NNW 19:57:18 10° NNW
USA 215 3.2 19:49:19 27° SE 19:53:10 82° SW 19:59:45 10° NW
OAO 1 Rocket 4.4 19:47:56 10° W 19:53:14 76° SSW 19:53:28 74° SSE
Cosmos 1461 4.1 19:50:19 10° SW 19:54:12 36° WNW 19:54:49 34° NW
Milstar 3 4.1 19:49:48 10° WSW 19:55:36 32° SSW 19:59:52 19° SSE
Cosmos 1603 4.1 19:57:35 10° S 20:01:44 49° S 20:01:44 49° S
Haruka 4.5 20:04:46 10° W 20:09:53 70° S 20:13:50 45° ESE
Spot 2 Rocket 4.2 20:10:42 10° S 20:15:36 51° W 20:20:32 10° NNW
USA 229 DEB 4.1 20:30:01 10° SW 20:36:42 56° NW 20:37:00 56° NW
USA 229 4.1 20:30:06 10° SW 20:36:48 57° NW 20:37:02 56° NW
H-2A ROCKET BODY 3.4 20:27:05 10° W 20:39:02 45° SW 20:39:02 45° SW
SL-16 R/B 4.5 20:39:27 10° W 20:43:23 19° WNW 20:45:34 16° NNW
